This is the latest recevied weather packets stored in our database for station/object lu6fg. If no packets are shown the sender has not sent any weather packets the latest 10 day(s).
| Time | Temp. | Humidity | Pressure | Rain* | Wind** | Luminosity | Snow |
|---|---|---|---|---|---|---|---|
| 1778353933 | 10.56° C | 82% | 1022.4 hPa | 0 mm | - | - | - |
| 1778353175 | 10.56° C | 80% | 1022 hPa | 0 mm | - | - | - |
| 1778353093 | 10.56° C | 80% | 1022.1 hPa | 0 mm | - | - | - |
| 1778352793 | 10.56° C | 80% | 1021.9 hPa | 0 mm | - | - | - |
| 1778352253 | 10.56° C | 81% | 1022.1 hPa | 0 mm | - | - | - |
| 1778352133 | 10.56° C | 81% | 1022.1 hPa | 0 mm | - | - | - |
| 1778351953 | 10.56° C | 82% | 1022 hPa | 0 mm | - | - | - |
| 1778351893 | 10.56° C | 83% | 1022.2 hPa | 0 mm | - | - | - |
| 1778351854 | 10.56° C | 83% | 1022.2 hPa | 0 mm | - | - | - |
| 1778351473 | 10° C | 85% | 1022.1 hPa | 0 mm | - | - | - |
| 1778351353 | 10° C | 86% | 1022.1 hPa | 0 mm | - | - | - |
| 1778351173 | 10° C | 85% | 1021.9 hPa | 0 mm | - | - | - |
| 1778350873 | 10° C | 83% | 1022.1 hPa | 0 mm | - | - | - |
| 1778350234 | 10° C | 84% | 1022.2 hPa | 0 mm | - | - | - |
| 1778350153 | 10° C | 84% | 1022 hPa | 0 mm | - | - | - |
| 1778349732 | 10° C | 82% | 1021.9 hPa | 0 mm | - | - | - |
| 1778349132 | 10.56° C | 77% | 1022 hPa | 0 mm | - | - | - |
| 1778349072 | 10.56° C | 77% | 1021.9 hPa | 0 mm | - | - | - |
| 1778348773 | 10.56° C | 74% | 1021.8 hPa | 0 mm | - | - | - |
| 1778348653 | 10.56° C | 75% | 1021.8 hPa | 0 mm | - | - | - |
| 1778348614 | 11.11° C | 74% | 1021.8 hPa | 0 mm | - | - | - |
| 1778348413 | 11.11° C | 74% | 1021.8 hPa | 0 mm | - | - | - |
| 1778348353 | 11.11° C | 74% | 1021.8 hPa | 0 mm | - | - | - |
| 1778348053 | 11.11° C | 73% | 1021.7 hPa | 0 mm | - | - | - |
| 1778347993 | 11.11° C | 73% | 1021.6 hPa | 0 mm | - | - | - |
* Rain latest hour (hover to see other rain measurements)
** Current wind speed in m/s (hover to see current wind gust speed)